Date String (YYYY-MM-DD hh:mm:ss) UTC,Instrument flags,Ambient pressure (hPa),Sample flow (lpm),Bypass flow (lpm),Sample temperature (°C),Ambient temperature (°C),ASC tube jacket temperature (°C),LED temperature (°C),Box temperature (°C),Sample RH (%),Span deviation,Mass concentration (μg/m³),Mass concentration (μg/m³),Mass concentration (μg/m³)
DateTimeUTC,F1_M11,P_M11,Q1_M11,Q2_M11,T1_M11,T2_M11,T3_M11,T4_M11,T5_M11,U1_M11,ZSPAN_M11,X0_M11,X2_M11,X1_M11
2021-09-12 11:00:00,,0830.3,5.00,0.00,29.7,28.8,00.0,38.8,31.5,19.7,0002.0,0014.55,0007.69,0006.40
2021-09-12 11:01:00,,0830.3,5.02,0.00,29.7,28.8,00.0,38.8,31.5,19.6,0001.8,0014.16,0007.73,0006.41
2021-09-12 11:02:00,,0830.4,4.99,0.00,29.7,28.9,00.0,38.8,31.5,19.7,0001.9,0014.73,0007.69,0006.42
2021-09-12 11:03:00,,0830.4,4.99,0.00,29.8,28.9,00.0,38.8,31.6,19.9,0001.7,0014.84,0007.69,0006.41
2021-09-12 11:04:00,,0830.4,5.00,0.00,29.8,28.9,00.0,38.8,31.6,19.8,0002.0,0014.25,0007.71,0006.42
2021-09-12 11:05:00,,0830.4,5.00,0.00,29.8,29.0,00.0,38.9,31.6,19.6,0002.3,0014.11,0007.71,0006.43
2021-09-12 11:06:00,,0830.4,5.01,0.00,29.8,29.0,00.0,38.9,31.6,19.6,0002.4,0014.12,0007.75,0006.42
2021-09-12 11:07:00,,0830.4,5.00,0.00,29.8,29.0,00.0,38.9,31.7,20.1,0002.5,0013.53,0007.74,0006.43
2021-09-12 11:08:00,,0830.4,4.99,0.00,29.9,29.1,00.0,38.9,31.7,20.2,0002.7,0013.37,0007.69,0006.44
2021-09-12 11:09:00,,0830.4,4.99,0.00,29.9,29.1,00.0,38.9,31.7,20.1,0002.6,0013.37,0007.68,0006.43
2021-09-12 11:10:00,,0830.4,5.01,0.00,29.9,29.2,00.0,38.9,31.7,19.9,0002.3,0013.45,0007.71,0006.44
2021-09-12 11:11:00,,0830.4,5.01,0.00,30.0,29.2,00.0,39.0,31.7,19.8,0002.4,0013.66,0007.71,0006.44
2021-09-12 11:12:00,,0830.4,4.99,0.00,30.0,29.2,00.0,39.0,31.8,19.8,0002.4,0013.42,0007.65,0006.43
2021-09-12 11:13:00,,0830.4,5.01,0.00,30.0,29.3,00.0,39.0,31.9,19.8,0002.4,0012.76,0007.65,0006.42
2021-09-12 11:14:00,,0830.4,5.00,0.00,30.0,29.3,00.0,39.0,31.9,19.8,0002.5,0012.50,0007.64,0006.42
2021-09-12 11:15:00,,0830.4,5.00,0.00,30.1,29.3,00.0,39.0,31.9,19.9,0002.6,0012.58,0007.69,0006.43
2021-09-12 11:16:00,,0830.4,5.00,0.00,30.1,29.3,00.0,39.1,31.9,19.9,0002.5,0012.70,0007.70,0006.42
2021-09-12 11:17:00,,0830.4,5.00,0.00,30.1,29.2,00.0,39.1,31.9,19.7,0002.2,0012.91,0007.66,0006.42
2021-09-12 11:18:00,,0830.5,5.01,0.00,30.0,27.5,00.0,39.1,31.5,19.7,0001.9,0013.52,0007.69,0006.43
2021-09-12 11:19:00,,0830.4,5.00,0.00,29.9,26.4,00.0,39.1,31.2,19.8,0002.0,0013.56,0007.70,0006.42
2021-09-12 11:20:00,,0830.4,5.00,0.00,29.8,26.5,00.0,39.0,31.2,19.9,0001.8,0014.26,0007.74,0006.43
2021-09-12 11:21:00,,0830.4,5.00,0.00,29.7,26.9,00.0,39.0,31.2,19.8,0001.6,0014.34,0007.75,0006.43
2021-09-12 11:22:00,,0830.4,5.00,0.00,29.7,27.3,00.0,38.9,31.2,19.8,0001.6,0014.06,0007.68,0006.41
2021-09-12 11:23:00,,0830.5,5.00,0.00,29.7,27.6,00.0,38.9,31.3,19.8,0001.5,0014.06,0007.65,0006.39
2021-09-12 11:24:00,,0830.4,4.99,0.00,29.7,27.9,00.0,38.9,31.3,19.9,0001.5,0014.00,0007.65,0006.38
2021-09-12 11:25:00,,0830.4,4.99,0.00,29.7,28.1,00.0,38.9,31.4,20.0,0001.4,0013.85,0007.59,0006.36
2021-09-12 11:26:00,,0830.4,5.01,0.00,29.7,28.2,00.0,38.9,31.4,20.1,0001.4,0013.86,0007.57,0006.35
2021-09-12 11:27:00,,0830.4,4.99,0.00,29.7,28.4,00.0,38.9,31.4,20.1,0001.3,0013.89,0007.56,0006.35
2021-09-12 11:28:00,,0830.4,5.02,0.00,29.7,28.5,00.0,38.9,31.5,20.0,0001.4,0013.77,0007.55,0006.33
2021-09-12 11:29:00,,0830.4,4.99,0.00,29.7,28.5,00.0,38.9,31.5,19.7,0001.0,0013.51,0007.46,0006.28
2021-09-12 11:30:00,,0830.4,5.00,0.00,29.7,28.6,00.0,38.9,31.5,19.8,0000.7,0014.08,0007.43,0006.23
2021-09-12 11:31:00,,0830.4,5.00,0.00,29.8,28.7,00.0,38.9,31.5,19.7,0000.8,0013.38,0007.35,0006.19
2021-09-12 11:32:00,,0830.4,5.00,0.00,29.8,28.7,00.0,38.9,31.5,19.7,0000.8,0013.21,0007.26,0006.14
2021-09-12 11:33:00,,0830.4,5.01,0.00,29.8,28.8,00.0,38.9,31.5,19.6,0000.7,0013.17,0007.25,0006.10
2021-09-12 11:34:00,,0830.4,4.99,0.00,29.8,28.8,00.0,38.9,31.6,19.7,0000.9,0013.01,0007.21,0006.06
2021-09-12 11:35:00,,0830.4,5.00,0.00,29.8,28.9,00.0,38.9,31.6,19.6,0001.2,0012.85,0007.12,0006.00
2021-09-12 11:36:00,,0830.4,5.00,0.00,29.8,28.9,00.0,38.9,31.6,19.6,0001.6,0013.20,0007.09,0005.96
2021-09-12 11:37:00,,0830.5,4.99,0.00,29.8,28.9,00.0,38.9,31.6,19.7,0002.1,0013.60,0006.99,0005.90
2021-09-12 11:38:00,,0830.4,4.99,0.00,29.8,29.0,00.0,38.9,31.6,20.0,0002.0,0013.75,0006.93,0005.84
2021-09-12 11:39:00,,0830.4,5.01,0.00,29.9,29.0,00.0,38.9,31.7,20.0,0001.8,0013.70,0006.91,0005.83
2021-09-12 11:40:00,,0830.4,4.99,0.00,29.9,29.0,00.0,38.9,31.7,20.0,0002.3,0013.08,0006.92,0005.83
2021-09-12 11:41:00,,0830.4,4.99,0.00,29.9,29.1,00.0,39.0,31.7,20.0,0002.4,0012.74,0006.92,0005.83
2021-09-12 11:42:00,,0830.4,5.01,0.00,29.9,29.1,00.0,39.0,31.7,20.0,0002.4,0012.81,0006.96,0005.83
2021-09-12 11:43:00,,0830.4,4.99,0.00,30.0,29.2,00.0,39.0,31.8,20.1,0002.7,0012.77,0006.97,0005.85
2021-09-12 11:44:00,,0830.4,5.00,0.00,30.0,29.2,00.0,39.0,31.8,19.9,0003.0,0012.89,0007.00,0005.87
2021-09-12 11:45:00,,0830.5,5.01,0.00,30.0,29.2,00.0,39.0,31.9,19.9,0003.0,0013.03,0007.05,0005.88
2021-09-12 11:46:00,,0830.5,4.99,0.00,30.1,29.3,00.0,39.1,31.9,20.0,0002.9,0013.21,0007.13,0005.93
2021-09-12 11:47:00,,0830.6,5.00,0.00,30.1,29.3,00.0,39.1,31.9,20.1,0002.9,0012.87,0007.17,0005.98
2021-09-12 11:48:00,,0830.5,5.00,0.00,30.1,29.3,00.0,39.1,31.9,20.2,0002.8,0012.45,0007.23,0006.03
2021-09-12 11:49:00,,0830.6,4.99,0.00,30.1,29.3,00.0,39.1,31.9,20.0,0002.9,0012.58,0007.28,0006.09
2021-09-12 11:50:00,,0830.6,5.00,0.00,30.1,27.6,00.0,39.1,31.5,20.0,0003.0,0013.08,0007.35,0006.12
2021-09-12 11:51:00,,0830.7,5.00,0.00,29.9,26.4,00.0,39.1,31.2,20.1,0002.8,0013.33,0007.39,0006.15
2021-09-12 11:52:00,,0830.6,5.00,0.00,29.8,26.6,00.0,39.0,31.2,20.1,0003.1,0013.97,0007.44,0006.18
2021-09-12 11:53:00,,0830.6,5.01,0.00,29.8,27.0,00.0,39.0,31.2,20.2,0003.0,0014.30,0007.45,0006.20
2021-09-12 11:54:00,,0830.6,4.99,0.00,29.7,27.4,00.0,38.9,31.3,20.2,0002.7,0014.28,0007.45,0006.20
2021-09-12 11:55:00,,0830.6,5.00,0.00,29.7,27.7,00.0,38.9,31.3,20.2,0002.7,0014.14,0007.42,0006.19
2021-09-12 11:56:00,,0830.6,5.00,0.00,29.7,28.0,00.0,38.9,31.4,20.2,0002.6,0014.25,0007.44,0006.20
2021-09-12 11:57:00,,0830.6,4.99,0.00,29.7,28.2,00.0,38.9,31.4,20.3,0002.6,0014.34,0007.43,0006.18
2021-09-12 11:58:00,,0830.6,5.00,0.00,29.8,28.4,00.0,38.9,31.5,20.5,0002.5,0014.48,0007.41,0006.13
2021-09-12 11:59:00,,0830.6,5.01,0.00,29.8,28.5,00.0,38.9,31.5,20.4,0002.1,0014.56,0007.40,0006.09
